{"data":{"norad_id":47978,"epoch":"2026-09-20T00:37:21.588384Z","epoch_age_seconds":71236,"freshness":"FRESH","line1":"1 47978U 21024B   26263.02594431 -.00000043  00000+0  10370-4 0  9993","line2":"2 47978  53.1583 147.9797 0001072 105.1982 254.9138 15.31701157304406","mean_motion":15.31701157,"eccentricity":0.0001072,"inclination_deg":53.1583,"raan_deg":147.9797,"arg_perigee_deg":105.1982,"mean_anomaly_deg":254.9138,"bstar":1.037e-5,"rev_number":30440,"period_min":94.013116946415,"perigee_km":470.00234702687,"apogee_km":471.47074551518,"semimajor_km":6848.873546271,"source":"CELESTRAK","updated_at":"2026-09-20T09:00:38.758537Z"}}